Location: Goll?ig?dem
(16.6773°N, 80.7332°E)
Time: 00:33:08
(UTC+00:00)

Cosmos 1975 Rocket - Pass Details

Date: 21 April 2021
Orbit: 602 x 635 km, 82.5° (Epoch: 07 May)

Event Time Altitude Azimuth Distance (km) Brightness Sun altitude
Exits shadow 23:06:52 23° 210° (SSW) 1,339 4.3 -17.0°
Maximum altitude 23:09:22 49° 275° (W) 810 3.2 -16.5°
Drops below altitude 10° 23:13:40 10° 351° (N) 2,002 5.8 -15.5°
Sets 23:15:57 0° 357° (N) 2,905 6.7 -15.0°
